Location: Clarks Summit,Pa.
(41.5000°N, 75.6000°W)
Time: 13:40:02
(UTC-04:00)

ISS - Visible Passes

Search period start: 03 October 2022 00:00
Search period end: 13 October 2022 00:00
Orbit: 415 x 420 km, 51.6° (Epoch: 03 October)

Date Brightness Start Highest point End Pass type
(mag) Time Alt. Az. Time Alt. Az. Time Alt. Az.
03 Oct -3.3 19:09:23 10° NW 19:12:40 47° NNE 19:15:56 10° ESE visible
03 Oct -1.6 20:46:35 10° W 20:49:03 21° SW 20:49:03 21° SW visible
04 Oct -2.5 19:58:07 10° WNW 20:01:15 37° SW 20:03:17 18° SSE visible
05 Oct -3.4 19:09:50 10° WNW 19:13:12 66° SW 19:16:31 10° SE visible
06 Oct -0.8 19:59:41 10° W 20:01:23 13° SW 20:03:05 10° SSW visible
07 Oct -1.3 19:10:40 10° W 19:13:23 23° SW 19:16:05 10° S visible
